Weather History for St. James, MN

Change the Weather History Date:

Sunday, February 9, 2014

  Actual Average Record
Temperature  
Mean Temperature 0 °F -  
Max Temperature 6 °F 26 °F 118 °F (1999)
Min Temperature -7 °F 5 °F -23 °F (1979)
Degree Days  
Heating Degree Days 66    
Moisture  
Dew Point -7 °F    
Average Humidity 73    
Maximum Humidity 84    
Minimum Humidity 66    
Precipitation  
Precipitation 0.00 in - - ()
Sea Level Pressure  
Sea Level Pressure 30.32 in    
Wind  
Wind Speed 13 mph (WNW)    
Max Wind Speed 16 mph    
Max Gust Speed 22 mph    
Visibility 10 miles    
Events      
Averages and records for this station are not official NWS values.
T = Trace of Precipitation, MM = Missing Value Source: NWS Daily Summary

Daily Weather History Graph

Daily Weather History Graph

Search for Another Location

Airport:

Trip Planner

Search our weather history database for the weather conditions in past years. The results will help you decide how hot, cold, wet, or windy it might be!

Date:

Astronomy

Feb. 09, 2014 Rise Set
Actual Time 7:25 AM CST 5:39 PM CST
Civil Twilight 6:55 AM CST 6:09 PM CST
Nautical Twilight 6:21 AM CST 6:43 PM CST
Astronomical Twilight 5:48 AM CST 7:17 PM CST
Moon 1:16 PM CST (2/9) 3:34 AM CST (2/9)
Length of Visible Light 11h 14m
Length of Day
10h 14m
Waxing Gibbous, 77% of the Moon is Illuminated
Feb 9
Waxing Gibbous
Feb 14
Full
Feb 22
Last Quarter
Mar 1
New
Mar 8
First Quarter

Hourly Weather History & Observations

Time (CST) Temp. Windchill Dew Point Humidity Pressure Visibility Wind Dir Wind Speed Gust Speed Precip Events Conditions
12:15 AM 6.8 °F -10.0 °F 1.4 °F 79% 30.21 in 10.0 mi WNW 13.8 mph - N/A   Overcast
12:35 AM 3.2 °F -15.9 °F -2.2 °F 78% 30.22 in 10.0 mi WNW 16.1 mph - N/A   Mostly Cloudy
12:55 AM 1.4 °F -18.2 °F -4.0 °F 78% 30.21 in 10.0 mi WNW 16.1 mph - N/A   Mostly Cloudy
1:15 AM 1.4 °F -16.9 °F -4.0 °F 78% 30.22 in 10.0 mi WNW 13.8 mph - N/A   Scattered Clouds
1:35 AM -0.4 °F -20.5 °F -5.8 °F 78% 30.22 in 10.0 mi WNW 16.1 mph - N/A   Mostly Cloudy
1:54 AM -0.4 °F -20.5 °F -5.8 °F 78% 30.23 in 10.0 mi WNW 16.1 mph - N/A   Overcast
2:15 AM -0.4 °F -19.2 °F -5.8 °F 78% 30.23 in 10.0 mi WNW 13.8 mph - N/A   Overcast
2:34 AM -2.2 °F -20.7 °F -7.6 °F 78% 30.23 in 10.0 mi WNW 12.7 mph 19.6 mph N/A   Overcast
2:55 AM -2.2 °F -21.5 °F -7.6 °F 78% 30.24 in 10.0 mi WNW 13.8 mph - N/A   Overcast
3:15 AM -2.2 °F -22.2 °F -7.6 °F 78% 30.24 in 10.0 mi WNW 15.0 mph - N/A   Overcast
3:34 AM -2.2 °F -22.2 °F -7.6 °F 78% 30.24 in 10.0 mi WNW 15.0 mph - N/A   Overcast
3:55 AM -2.2 °F -21.5 °F -7.6 °F 78% 30.24 in 10.0 mi WNW 13.8 mph - N/A   Overcast
4:15 AM -4.0 °F -23.0 °F -9.4 °F 78% 30.24 in 10.0 mi WNW 12.7 mph - N/A   Overcast
4:34 AM -4.0 °F -23.0 °F -9.4 °F 78% 30.24 in 10.0 mi WNW 12.7 mph - N/A   Mostly Cloudy
4:55 AM -4.0 °F -23.7 °F -9.4 °F 78% 30.24 in 10.0 mi WNW 13.8 mph - N/A   Clear
5:15 AM -4.0 °F -23.7 °F -9.4 °F 78% 30.24 in 10.0 mi NW 13.8 mph - N/A   Clear
5:34 AM -4.0 °F -23.7 °F -9.4 °F 78% 30.25 in 10.0 mi NW 13.8 mph - N/A   Clear
5:55 AM -5.8 °F -25.2 °F -9.4 °F 84% 30.26 in 10.0 mi WNW 12.7 mph - N/A   Clear
6:15 AM -5.8 °F -25.2 °F -9.4 °F 84% 30.26 in 10.0 mi WNW 12.7 mph - N/A   Clear
6:34 AM -5.8 °F -24.4 °F -11.2 °F 77% 30.27 in 10.0 mi WNW 11.5 mph - N/A   Clear
6:55 AM -5.8 °F -24.4 °F -11.2 °F 77% 30.28 in 10.0 mi WNW 11.5 mph - N/A   Clear
7:15 AM -5.8 °F -24.4 °F -11.2 °F 77% 30.29 in 10.0 mi WNW 11.5 mph - N/A   Clear
7:35 AM -7.6 °F -25.7 °F -11.2 °F 84% 30.29 in 10.0 mi WNW 10.4 mph - N/A   Clear
7:55 AM -5.8 °F -24.4 °F -11.2 °F 77% 30.29 in 10.0 mi WNW 11.5 mph - N/A   Clear
8:15 AM -5.8 °F -23.4 °F -11.2 °F 77% 30.30 in 10.0 mi WNW 10.4 mph - N/A   Clear
8:35 AM -5.8 °F -23.4 °F -11.2 °F 77% 30.31 in 10.0 mi WNW 10.4 mph - N/A   Clear
8:55 AM -4.0 °F -22.1 °F -11.2 °F 71% 30.31 in 10.0 mi WNW 11.5 mph - N/A   Clear
9:15 AM -2.2 °F -20.7 °F -9.4 °F 71% 30.32 in 10.0 mi WNW 12.7 mph - N/A   Clear
9:34 AM -2.2 °F -19.9 °F -9.4 °F 71% 30.33 in 10.0 mi WNW 11.5 mph - N/A   Clear
9:55 AM -2.2 °F -21.5 °F -9.4 °F 71% 30.33 in 10.0 mi WNW 13.8 mph - N/A   Clear
10:15 AM -0.4 °F -19.2 °F -7.6 °F 72% 30.34 in 10.0 mi WNW 13.8 mph - N/A   Clear
10:35 AM -0.4 °F -19.2 °F -7.6 °F 72% 30.34 in 10.0 mi NW 13.8 mph - N/A   Clear
10:55 AM -0.4 °F -17.6 °F -7.6 °F 72% 30.34 in 10.0 mi WNW 11.5 mph - N/A   Clear
11:15 AM 1.4 °F -15.3 °F -7.6 °F 66% 30.34 in 10.0 mi NW 11.5 mph - N/A   Clear
11:34 AM 1.4 °F -15.3 °F -7.6 °F 66% 30.35 in 10.0 mi WNW 11.5 mph - N/A   Clear
11:55 AM 1.4 °F -16.1 °F -5.8 °F 72% 30.34 in 10.0 mi WNW 12.7 mph - N/A   Clear
12:15 PM 3.2 °F -13.9 °F -5.8 °F 66% 30.34 in 10.0 mi WNW 12.7 mph - N/A   Clear
12:35 PM 3.2 °F -14.6 °F -5.8 °F 66% 30.34 in 10.0 mi NW 13.8 mph - N/A   Clear
12:54 PM 5.0 °F -11.6 °F -4.0 °F 66% 30.35 in 10.0 mi WNW 12.7 mph - N/A   Clear
1:15 PM 5.0 °F -12.3 °F -4.0 °F 66% 30.34 in 10.0 mi NW 13.8 mph - N/A   Scattered Clouds
1:35 PM 6.8 °F -11.3 °F -2.2 °F 67% 30.34 in 10.0 mi NW 16.1 mph - N/A   Scattered Clouds
1:55 PM 6.8 °F -10.7 °F -2.2 °F 67% 30.34 in 10.0 mi WNW 15.0 mph - N/A   Scattered Clouds
2:15 PM 6.8 °F -9.3 °F -2.2 °F 67% 30.33 in 10.0 mi WNW 12.7 mph - N/A   Scattered Clouds
2:35 PM 6.8 °F -10.7 °F -2.2 °F 67% 30.33 in 10.0 mi WNW 15.0 mph 21.9 mph N/A   Scattered Clouds
2:55 PM 6.8 °F -10.7 °F -2.2 °F 67% 30.33 in 10.0 mi WNW 15.0 mph - N/A   Scattered Clouds
3:15 PM 6.8 °F -9.3 °F -2.2 °F 67% 30.33 in 10.0 mi West 12.7 mph 20.7 mph N/A   Scattered Clouds
3:34 PM 6.8 °F -10.7 °F -2.2 °F 67% 30.33 in 10.0 mi WNW 15.0 mph 20.7 mph N/A   Scattered Clouds
3:54 PM 6.8 °F -10.0 °F -0.4 °F 72% 30.33 in 10.0 mi West 13.8 mph - N/A   Scattered Clouds
4:15 PM 6.8 °F -10.0 °F -0.4 °F 72% 30.33 in 10.0 mi West 13.8 mph - N/A   Scattered Clouds
4:35 PM 6.8 °F -9.3 °F -0.4 °F 72% 30.33 in 10.0 mi West 12.7 mph - N/A   Mostly Cloudy
4:55 PM 6.8 °F -10.7 °F -0.4 °F 72% 30.33 in 5.0 mi WNW 15.0 mph - N/A   Haze
5:15 PM 5.0 °F -13.0 °F -2.2 °F 72% 30.34 in 10.0 mi NW 15.0 mph - N/A   Mostly Cloudy
5:35 PM 3.2 °F -14.6 °F -4.0 °F 72% 30.35 in 10.0 mi NW 13.8 mph - N/A   Clear
5:55 PM 3.2 °F -13.9 °F -5.8 °F 66% 30.36 in 10.0 mi NW 12.7 mph 18.4 mph N/A   Clear
6:14 PM 1.4 °F -13.5 °F -5.8 °F 72% 30.36 in 10.0 mi WNW 9.2 mph - N/A   Clear
6:35 PM 1.4 °F -14.5 °F -5.8 °F 72% 30.37 in 10.0 mi WNW 10.4 mph - N/A   Clear
6:55 PM -0.4 °F -17.6 °F -7.6 °F 72% 30.37 in 10.0 mi WNW 11.5 mph - N/A   Clear
7:14 PM -0.4 °F -17.6 °F -7.6 °F 72% 30.38 in 10.0 mi WNW 11.5 mph - N/A   Clear
7:35 PM -0.4 °F -17.6 °F -7.6 °F 72% 30.37 in 10.0 mi WNW 11.5 mph - N/A   Clear
7:55 PM -0.4 °F -16.7 °F -9.4 °F 66% 30.38 in 10.0 mi NW 10.4 mph - N/A   Clear
8:14 PM -2.2 °F -18.0 °F -9.4 °F 71% 30.38 in 10.0 mi WNW 9.2 mph - N/A   Clear
8:35 PM -2.2 °F -18.9 °F -9.4 °F 71% 30.38 in 10.0 mi NW 10.4 mph - N/A   Clear
8:55 PM -2.2 °F -18.9 °F -9.4 °F 71% 30.39 in 10.0 mi NW 10.4 mph - N/A   Clear
9:14 PM -2.2 °F -18.0 °F -11.2 °F 66% 30.39 in 10.0 mi WNW 9.2 mph - N/A   Clear
9:35 PM -4.0 °F -17.8 °F -11.2 °F 71% 30.41 in 10.0 mi West 6.9 mph - N/A   Clear
9:55 PM -4.0 °F -19.0 °F -11.2 °F 71% 30.41 in 10.0 mi West 8.1 mph - N/A   Clear
10:14 PM -5.8 °F -21.2 °F -11.2 °F 77% 30.42 in 10.0 mi West 8.1 mph - N/A   Clear
10:35 PM -7.6 °F -20.6 °F -13.0 °F 77% 30.43 in 10.0 mi West 5.8 mph - N/A   Clear
10:55 PM -7.6 °F -23.4 °F -13.0 °F 77% 30.43 in 10.0 mi West 8.1 mph - N/A   Clear
11:15 PM -7.6 °F -25.7 °F -13.0 °F 77% 30.44 in 10.0 mi West 10.4 mph - N/A   Clear
11:35 PM -7.6 °F -25.7 °F -13.0 °F 77% 30.44 in 10.0 mi West 10.4 mph - N/A   Clear
11:55 PM -7.6 °F -24.6 °F -13.0 °F 77% 30.44 in 10.0 mi West 9.2 mph - N/A   Clear